• Em Portugal
  • Lista de países
  • Para 7 dias
  • Temperatura da água
  • Mapas de satélite
  • Mapa do tempo
  • Widgets de tempo
  • user-avatar
    Iniciar Sessão

    Previsão horária em Uige

    Hoje, 22 Abril, Domingo

    Tempo Temperatura Precipitação Vento Pressão Humidade
    00:00 +20°C° 0 mm 0 m/s 691 mmHg 91%
    01:00 +20°C° 0 mm 0 m/s 691 mmHg 92%
    02:00 +20°C° 0,1 mm 0 m/s 690 mmHg 92%
    03:00 +20°C° 0,1 mm 0 m/s 690 mmHg 93%
    04:00 +20°C° 0,1 mm 0 m/s 690 mmHg 94%
    05:00 +20°C° 0 mm 0 m/s 690 mmHg 93%
    06:00 +22°C° 0 mm 1 m/s 691 mmHg 92%
    07:00 +23°C° 0 mm 1 m/s 691 mmHg 90%
    08:00 +25°C° 0,1 mm 1 m/s 692 mmHg 80%
    09:00 +28°C° 0,1 mm 1 m/s 692 mmHg 70%
    10:00 +30°C° 0,1 mm 1 m/s 693 mmHg 61%
    11:00 +31°C° 0,1 mm 1 m/s 692 mmHg 57%
    12:00 +32°C° 0,1 mm 1 m/s 692 mmHg 53%
    13:00 +32°C° 0,1 mm 2 m/s 691 mmHg 49%
    14:00 +31°C° 0 mm 1 m/s 691 mmHg 54%
    15:00 +30°C° 0 mm 1 m/s 690 mmHg 59%
    16:00 +30°C° 0 mm 1 m/s 690 mmHg 63%
    17:00 +28°C° 0,2 mm 1 m/s 690 mmHg 68%
    18:00 +27°C° 0,2 mm 1 m/s 690 mmHg 73%
    19:00 +25°C° 0,2 mm 1 m/s 690 mmHg 77%
    20:00 +25°C° 0,4 mm 1 m/s 691 mmHg 81%
    21:00 +22°C° 0,4 mm 0 m/s 691 mmHg 84%
    22:00 +21°C° 0,4 mm 0 m/s 691 mmHg 87%
    23:00 +21°C° 0,1 mm 0 m/s 691 mmHg 89%

    Amanhã, 23 Abril, Segunda-feira

    Tempo Temperatura Precipitação Vento Pressão Humidade
    00:00 +20°C° 0,1 mm 0 m/s 691 mmHg 90%
    01:00 +20°C° 0,1 mm 0 m/s 691 mmHg 91%
    02:00 +20°C° 0 mm 0 m/s 691 mmHg 93%
    03:00 +20°C° 0 mm 0 m/s 691 mmHg 94%
    04:00 +19°C° 0 mm 0 m/s 691 mmHg 95%
    05:00 +20°C° 0 mm 0 m/s 691 mmHg 95%
    06:00 +20°C° 0 mm 0 m/s 691 mmHg 94%
    07:00 +22°C° 0 mm 1 m/s 692 mmHg 93%
    08:00 +24°C° 0,5 mm 1 m/s 692 mmHg 85%
    09:00 +26°C° 0,5 mm 1 m/s 693 mmHg 77%
    10:00 +29°C° 0,5 mm 1 m/s 693 mmHg 70%
    11:00 +29°C° 0,7 mm 1 m/s 693 mmHg 68%
    12:00 +30°C° 0,7 mm 1 m/s 692 mmHg 66%
    13:00 +30°C° 0,7 mm 1 m/s 692 mmHg 65%
    14:00 +30°C° 1,5 mm 1 m/s 691 mmHg 68%
    15:00 +29°C° 1,5 mm 1 m/s 691 mmHg 72%
    16:00 +28°C° 1,5 mm 1 m/s 690 mmHg 76%
    17:00 +27°C° 1 mm 1 m/s 690 mmHg 81%
    18:00 +25°C° 1 mm 1 m/s 690 mmHg 85%
    19:00 +23°C° 1 mm 1 m/s 691 mmHg 90%
    20:00 +23°C° 0,2 mm 1 m/s 691 mmHg 91%
    21:00 +23°C° 0,2 mm 1 m/s 691 mmHg 91%
    22:00 +22°C° 0,2 mm 1 m/s 692 mmHg 92%
    23:00 +20°C° 0 mm 0 m/s 692 mmHg 92%

    Depois de amanhã, 24 Abril, Terça-feira

    Tempo Temperatura Precipitação Vento Pressão Humidade
    00:00 +20°C° 0 mm 0 m/s 692 mmHg 92%
    01:00 +20°C° 0 mm 0 m/s 691 mmHg 92%
    02:00 +21°C° 0 mm 1 m/s 691 mmHg 93%
    03:00 +21°C° 0 mm 1 m/s 691 mmHg 94%
    04:00 +21°C° 0 mm 1 m/s 691 mmHg 95%
    05:00 +21°C° 0 mm 1 m/s 691 mmHg 94%
    06:00 +22°C° 0 mm 1 m/s 692 mmHg 94%
    07:00 +22°C° 0 mm 1 m/s 692 mmHg 93%
    08:00 +25°C° 0 mm 1 m/s 693 mmHg 82%
    09:00 +27°C° 0 mm 1 m/s 693 mmHg 71%
    10:00 +30°C° 0 mm 1 m/s 694 mmHg 60%
    11:00 +31°C° 0,1 mm 2 m/s 693 mmHg 55%
    12:00 +32°C° 0,1 mm 2 m/s 693 mmHg 50%
    13:00 +34°C° 0,1 mm 2 m/s 692 mmHg 45%
    14:00 +32°C° 0 mm 1 m/s 691 mmHg 49%
    15:00 +32°C° 0 mm 1 m/s 691 mmHg 52%
    16:00 +31°C° 0 mm 1 m/s 690 mmHg 55%
    17:00 +30°C° 0 mm 1 m/s 690 mmHg 61%
    18:00 +26°C° 0 mm 0 m/s 691 mmHg 66%
    19:00 +24°C° 0,1 mm 0 m/s 691 mmHg 71%
    20:00 +24°C° 0,3 mm 0 m/s 691 mmHg 76%
    21:00 +23°C° 0,3 mm 0 m/s 692 mmHg 80%
    22:00 +22°C° 0,3 mm 0 m/s 692 mmHg 85%
    23:00 +22°C° 0,4 mm 0 m/s 692 mmHg 87%

    25 Abril, Quarta-feira

    Tempo Temperatura Precipitação Vento Pressão Humidade
    00:00 +23°C° 0,4 mm 1 m/s 691 mmHg 90%
    01:00 +23°C° 0,4 mm 1 m/s 691 mmHg 92%
    02:00 +22°C° 0,5 mm 1 m/s 691 mmHg 93%
    03:00 +22°C° 0,5 mm 1 m/s 691 mmHg 95%
    04:00 +22°C° 0,5 mm 1 m/s 691 mmHg 96%
    05:00 +22°C° 0 mm 1 m/s 691 mmHg 95%
    06:00 +22°C° 0 mm 1 m/s 692 mmHg 94%
    07:00 +23°C° 0 mm 1 m/s 692 mmHg 93%
    08:00 +25°C° 0,6 mm 1 m/s 692 mmHg 86%
    09:00 +27°C° 0,6 mm 1 m/s 693 mmHg 79%
    10:00 +29°C° 0,6 mm 2 m/s 693 mmHg 72%
    11:00 +30°C° 0,6 mm 2 m/s 693 mmHg 65%
    12:00 +31°C° 0,6 mm 1 m/s 692 mmHg 59%
    13:00 +32°C° 0,6 mm 1 m/s 692 mmHg 53%
    14:00 +31°C° 0,4 mm 1 m/s 691 mmHg 58%
    15:00 +30°C° 0,4 mm 1 m/s 691 mmHg 63%
    16:00 +29°C° 0,4 mm 1 m/s 690 mmHg 69%
    17:00 +28°C° 1,4 mm 1 m/s 690 mmHg 75%
    18:00 +26°C° 1,4 mm 1 m/s 691 mmHg 81%
    19:00 +24°C° 1,4 mm 1 m/s 691 mmHg 87%
    20:00 +24°C° 1,6 mm 1 m/s 691 mmHg 88%
    21:00 +24°C° 1,6 mm 1 m/s 692 mmHg 89%
    22:00 +23°C° 1,6 mm 1 m/s 692 mmHg 90%
    23:00 +23°C° 0,7 mm 1 m/s 692 mmHg 92%

    26 Abril, Quinta-feira

    Tempo Temperatura Precipitação Vento Pressão Humidade
    00:00 +23°C° 0,7 mm 1 m/s 691 mmHg 93%
    01:00 +22°C° 0,7 mm 1 m/s 691 mmHg 94%
    02:00 +22°C° 0,1 mm 1 m/s 691 mmHg 95%
    03:00 +20°C° 0,1 mm 0 m/s 691 mmHg 95%
    04:00 +20°C° 0,1 mm 0 m/s 690 mmHg 96%
    05:00 +20°C° 0,1 mm 0 m/s 691 mmHg 95%
    06:00 +20°C° 0,1 mm 0 m/s 691 mmHg 93%
    07:00 +21°C° 0,1 mm 0 m/s 692 mmHg 92%
    08:00 +23°C° 0,5 mm 0 m/s 692 mmHg 84%
    09:00 +27°C° 0,5 mm 1 m/s 693 mmHg 76%
    10:00 +29°C° 0,5 mm 1 m/s 693 mmHg 68%
    11:00 +30°C° 0,1 mm 1 m/s 693 mmHg 62%
    12:00 +31°C° 0,1 mm 1 m/s 692 mmHg 55%
    13:00 +33°C° 0,1 mm 1 m/s 691 mmHg 49%
    14:00 +32°C° 0,2 mm 1 m/s 691 mmHg 53%
    15:00 +29°C° 0,2 mm 0 m/s 690 mmHg 57%
    16:00 +28°C° 0,2 mm 0 m/s 690 mmHg 62%
    17:00 +26°C° 0,3 mm 0 m/s 690 mmHg 67%
    18:00 +25°C° 0,3 mm 0 m/s 690 mmHg 73%
    19:00 +23°C° 0,3 mm 0 m/s 690 mmHg 78%
    20:00 +22°C° 0,8 mm 0 m/s 691 mmHg 83%
    21:00 +22°C° 0,8 mm 0 m/s 691 mmHg 87%
    22:00 +21°C° 0,8 mm 0 m/s 691 mmHg 91%
    23:00 +21°C° 0,3 mm 0 m/s 691 mmHg 92%

    27 Abril, Sexta-feira

    Tempo Temperatura Precipitação Vento Pressão Humidade
    00:00 +21°C° 0,3 mm 0 m/s 691 mmHg 92%
    01:00 +21°C° 0,3 mm 0 m/s 690 mmHg 93%
    02:00 +22°C° 0 mm 1 m/s 690 mmHg 93%
    03:00 +22°C° 0 mm 1 m/s 690 mmHg 94%
    04:00 +22°C° 0 mm 1 m/s 690 mmHg 95%
    05:00 +22°C° 0 mm 1 m/s 690 mmHg 94%
    06:00 +22°C° 0 mm 1 m/s 690 mmHg 94%
    07:00 +23°C° 0 mm 1 m/s 691 mmHg 93%
    08:00 +25°C° 0 mm 1 m/s 691 mmHg 83%
    09:00 +27°C° 0 mm 1 m/s 692 mmHg 72%
    10:00 +29°C° 0 mm 2 m/s 692 mmHg 62%
    11:00 +30°C° 0 mm 2 m/s 691 mmHg 56%
    12:00 +31°C° 0 mm 2 m/s 691 mmHg 50%
    13:00 +33°C° 0 mm 1 m/s 690 mmHg 44%
    14:00 +33°C° 0 mm 1 m/s 690 mmHg 46%
    15:00 +33°C° 0 mm 1 m/s 690 mmHg 47%
    16:00 +32°C° 0 mm 1 m/s 689 mmHg 49%
    17:00 +30°C° 0 mm 1 m/s 690 mmHg 54%
    18:00 +26°C° 0 mm 0 m/s 690 mmHg 59%
    19:00 +24°C° 0 mm 0 m/s 690 mmHg 64%
    20:00 +25°C° 0 mm 1 m/s 690 mmHg 68%
    21:00 +25°C° 0 mm 1 m/s 690 mmHg 71%
    22:00 +24°C° 0 mm 1 m/s 691 mmHg 75%
    23:00 +23°C° 0,1 mm 1 m/s 690 mmHg 77%
    Mostrar mais